Location: Oberkirch
(48.5323°N, 8.0787°E)
Time: 07:35:46
(UTC+00:00)

ARGOS - Pass Details

Date: 08 November 2025
Orbit: 819 x 832 km, 98.5° (Epoch: 12 December)

Event Time Altitude Azimuth Distance (km) Brightness Sun altitude
Rises 04:07:17 0° 10° (N) 3,389 6.5 -22.9°
Reaches altitude 10° 04:09:42 10° 6° (N) 2,452 5.7 -22.5°
Maximum altitude 04:14:57 52° 291° (WNW) 1,026 3.2 -21.7°
Enters shadow 04:16:17 42° 247° (WSW) 1,171 3.5 -21.4°
